| time (UTC) | temp C | wind direction | speed KPH | gust KPH | rain 1hr cm | rain 24hr cm | rain mn cm | humidity % | barometer mb |
| 20260502170202 | 16 | 292 | 0.0 | 4.8 | 0.00 | 0.00 | 0.00 | 65 | 1012.2 |
| 20260502163201 | 16 | 290 | 1.6 | 4.8 | 0.00 | 0.00 | 0.00 | 66 | 1012.4 |
| 20260502160200 | 16 | 285 | 1.6 | 6.4 | 0.00 | 0.00 | 0.00 | 65 | 1012.7 |
| 20260502150158 | 17 | 244 | 1.6 | 8.0 | 0.00 | 0.00 | 0.00 | 61 | 1013.4 |
| 20260502130155 | 17 | 285 | 3.2 | 11.3 | 0.00 | 0.00 | 0.00 | 65 | 1014.4 |
| 20260502123155 | 16 | 283 | 3.2 | 11.3 | 0.00 | 0.00 | 0.00 | 67 | 1014.7 |
| 20260502120155 | 15 | 227 | 1.6 | 8.0 | 0.00 | 0.00 | 0.00 | 71 | 1015.2 |
| 20260502114557 | 15 | 24 | 1.6 | 9.7 | 0.00 | 0.00 | 0.00 | 74 | 1015.5 |
| 20260502110155 | 14 | 355 | 1.6 | 9.7 | 0.00 | 0.00 | 0.00 | 75 | 1015.8 |
| 20260502103157 | 13 | 246 | 1.6 | 9.7 | 0.00 | 0.00 | 0.00 | 79 | 1015.9 |
| 20260502100155 | 13 | 269 | 3.2 | 12.9 | 0.00 | 0.00 | 0.00 | 77 | 1016.1 |
| 20260502090154 | 12 | 144 | 1.6 | 4.8 | 0.00 | 0.00 | 0.00 | 81 | 1016.3 |
| 20260502070141 | 9 | 271 | 0.0 | 0.0 | 0.00 | 0.00 | 0.00 | 94 | 1016.7 |
| 20260502063141 | 9 | 271 | 0.0 | 0.0 | 0.00 | 0.00 | 0.00 | 94 | 1016.5 |
| 20260502060142 | 8 | 272 | 0.0 | 3.2 | 0.00 | 0.00 | 0.00 | 95 | 1016.4 |
| 20260502053140 | 8 | 272 | 0.0 | 3.2 | 0.00 | 0.00 | 0.00 | 94 | 1016.5 |
| 20260502050136 | 8 | 272 | 1.6 | 4.8 | 0.00 | 0.00 | 0.00 | 94 | 1016.5 |
| 20260502043137 | 8 | 309 | 0.0 | 3.2 | 0.00 | 0.00 | 0.00 | 94 | 1016.5 |
| 20260502040138 | 8 | 308 | 0.0 | 1.6 | 0.00 | 0.00 | 0.00 | 94 | 1016.7 |
| 20260502033134 | 8 | 308 | 0.0 | 6.4 | 0.00 | 0.00 | 0.00 | 94 | 1016.7 |
| 20260502031539 | 8 | 273 | 0.0 | 4.8 | 0.00 | 0.00 | 0.00 | 93 | 1016.6 |
| 20260502023136 | 9 | 272 | 1.6 | 6.4 | 0.00 | 0.00 | 0.00 | 93 | 1016.8 |
| 20260502020136 | 9 | 279 | 0.0 | 4.8 | 0.00 | 0.00 | 0.00 | 93 | 1017.0 |
| 20260502013135 | 10 | 278 | 0.0 | 6.4 | 0.00 | 0.00 | 0.00 | 93 | 1017.0 |
| 20260502010134 | 10 | 265 | 1.6 | 6.4 | 0.00 | 0.00 | 0.00 | 93 | 1017.4 |
| 20260502004528 | 10 | 258 | 1.6 | 6.4 | 0.00 | 0.00 | 0.00 | 93 | 1017.7 |
| 20260502000134 | 11 | 222 | 1.6 | 4.8 | 0.00 | 0.00 | 0.00 | 92 | 1017.8 |
| 20260501233140 | 11 | 311 | 1.6 | 8.0 | 0.00 | 0.00 | 0.00 | 92 | 1018.1 |
| 20260501231537 | 11 | 280 | 1.6 | 9.7 | 0.00 | 0.00 | 0.00 | 92 | 1018.2 |
| 20260501223131 | 11 | 302 | 0.0 | 4.8 | 0.00 | 0.00 | 0.00 | 92 | 1018.0 |
| 20260501220133 | 11 | 301 | 0.0 | 4.8 | 0.00 | 0.00 | 0.00 | 91 | 1018.2 |
| 20260501213130 | 12 | 300 | 1.6 | 6.4 | 0.00 | 0.00 | 0.00 | 91 | 1018.2 |
| 20260501210130 | 12 | 298 | 3.2 | 11.3 | 0.00 | 0.00 | 0.00 | 90 | 1018.4 |
| 20260501203130 | 12 | 300 | 0.0 | 6.4 | 0.00 | 0.00 | 0.00 | 89 | 1018.3 |
| 20260501200129 | 12 | 297 | 1.6 | 11.3 | 0.00 | 0.00 | 0.00 | 87 | 1018.4 |
| 20260501193130 | 13 | 302 | 3.2 | 12.9 | 0.00 | 0.00 | 0.00 | 82 | 1018.3 |
| 20260501190130 | 13 | 308 | 3.2 | 8.0 | 0.00 | 0.00 | 0.00 | 78 | 1018.2 |
| 20260501183130 | 14 | 313 | 1.6 | 8.0 | 0.00 | 0.00 | 0.00 | 76 | 1018.2 |
| 20260501181522 | 15 | 318 | 1.6 | 12.9 | 0.00 | 0.00 | 0.00 | 75 | 1018.2 |
| 20260501173130 | 16 | 324 | 1.6 | 12.9 | 0.00 | 0.00 | 0.00 | 74 | 1018.1 |